Total_Precipitation_Accumulation
0.08 0.09 0.16 0.17 0.12 0.09 0.09 0.12 0.15 0.14 0.12 0.10 0.09 0.07 0.05 0.04 0.04 0.04 0.04 0.03 0.04 0.05 0.06 0.06 0.07 0.07 0.09 0.10 0.10 0.10 0.10 0.12 0.20 0.29 0.38 0.42 0.50 0.60 0.74 0.83 0.84 0.65 0.50
0.02 0.05 0.13 0.16 0.13 0.11 0.10 0.12 0.13 0.14 0.12 0.11 0.09 0.08 0.06 0.05 0.05 0.04 0.04 0.04 0.05 0.06 0.06 0.06 0.07 0.07 0.08 0.06 0.07 0.08 0.11 0.17 0.31 0.47 0.61 0.60 0.69 0.72 0.70 0.66 0.74 0.58 0.44
0.02 0.02 0.08 0.17 0.17 0.12 0.11 0.12 0.13 0.12 0.12 0.11 0.09 0.08 0.06 0.06 0.05 0.05 0.05 0.05 0.05 0.06 0.07 0.07 0.07 0.06 0.06 0.06 0.07 0.08 0.14 0.26 0.42 0.66 0.96 0.79 0.59 0.72 0.65 0.61 0.61 0.39 0.31
0.02 0.02 0.03 0.11 0.17 0.15 0.12 0.13 0.13 0.12 0.11 0.10 0.08 0.07 0.06 0.06 0.05 0.05 0.05 0.06 0.06 0.07 0.07 0.07 0.06 0.05 0.05 0.06 0.07 0.10 0.19 0.32 0.48 0.72 1.08 0.75 0.37 0.46 0.50 0.40 0.39 0.28 0.25
0.04 0.03 0.05 0.09 0.12 0.15 0.14 0.14 0.13 0.11 0.10 0.08 0.07 0.06 0.05 0.05 0.05 0.06 0.06 0.07 0.08 0.08 0.09 0.08 0.06 0.06 0.04 0.05 0.07 0.11 0.21 0.34 0.50 0.63 0.71 0.75 0.75 0.47 0.36 0.30 0.30 0.27 0.23
0.06 0.05 0.07 0.10 0.12 0.15 0.14 0.14 0.12 0.10 0.09 0.08 0.07 0.07 0.06 0.06 0.07 0.07 0.08 0.09 0.08 0.09 0.12 0.11 0.07 0.07 0.07 0.07 0.09 0.12 0.20 0.34 0.43 0.40 0.38 0.49 0.65 0.45 0.36 0.37 0.31 0.29 0.24
0.12 0.10 0.10 0.14 0.15 0.15 0.14 0.14 0.13 0.12 0.10 0.09 0.07 0.08 0.08 0.08 0.10 0.11 0.11 0.12 0.12 0.13 0.14 0.15 0.13 0.10 0.09 0.10 0.12 0.14 0.23 0.38 0.41 0.42 0.40 0.49 0.58 0.42 0.55 0.69 0.55 0.42 0.30
0.27 0.18 0.16 0.21 0.20 0.18 0.17 0.17 0.17 0.15 0.13 0.12 0.11 0.11 0.11 0.12 0.13 0.16 0.17 0.18 0.19 0.20 0.20 0.19 0.17 0.16 0.14 0.14 0.16 0.18 0.28 0.32 0.34 0.49 0.49 0.49 0.42 0.39 0.64 0.87 0.79 0.68 0.54
0.48 0.29 0.20 0.18 0.19 0.19 0.22 0.22 0.20 0.19 0.17 0.16 0.16 0.15 0.15 0.15 0.16 0.18 0.21 0.22 0.23 0.25 0.25 0.24 0.23 0.23 0.22 0.19 0.19 0.24 0.32 0.35 0.38 0.60 0.60 0.53 0.40 0.46 0.65 0.76 0.76 0.75 0.68
0.58 0.39 0.28 0.25 0.25 0.21 0.20 0.20 0.21 0.19 0.18 0.18 0.19 0.20 0.21 0.20 0.22 0.26 0.27 0.29 0.31 0.31 0.30 0.32 0.34 0.35 0.33 0.28 0.26 0.30 0.35 0.31 0.31 0.53 0.76 0.63 0.51 0.67 0.83 0.80 0.83 0.87 0.79
0.79 0.54 0.36 0.35 0.31 0.30 0.27 0.27 0.34 0.32 0.32 0.32 0.36 0.36 0.42 0.51 0.57 0.63 0.53 0.53 0.54 0.59 0.60 0.60 0.61 0.63 0.59 0.44 0.42 0.52 0.46 0.33 0.51 0.72 1.00 0.69 0.62 0.82 1.00 1.02 0.97 0.90 0.87
0.75 0.67 0.57 0.46 0.41 0.41 0.41 0.47 0.69 0.72 0.79 0.83 0.91 0.90 0.95 0.88 0.75 0.63 0.68 0.84 0.89 1.04 1.16 1.26 1.36 1.18 0.96 0.79 0.93 1.20 0.66 0.49 0.63 0.82 0.99 0.83 0.86 1.13 1.26 1.23 1.09 0.90 0.84
0.88 0.72 0.76 0.66 0.60 0.63 0.72 0.73 0.86 0.97 1.11 1.18 1.14 1.22 1.32 1.16 0.96 0.86 0.98 1.20 1.30 1.45 1.55 1.85 1.98 1.46 1.42 1.57 1.60 1.53 1.13 0.99 0.93 1.22 1.29 1.29 1.36 1.58 1.59 1.50 1.38 1.16 1.00
1.04 0.97 1.08 1.04 0.95 0.94 0.95 1.00 0.92 0.90 0.97 1.11 1.19 1.23 1.40 1.31 1.21 1.23 1.25 1.31 1.53 1.70 1.93 1.94 2.08 2.07 2.10 2.00 1.94 1.89 1.74 1.48 1.36 1.65 2.02 1.99 1.90 1.89 1.99 1.83 1.58 1.48 1.36
1.31 1.33 1.31 1.31 1.44 1.42 1.33 1.22 0.96 0.94 0.90 0.92 1.03 1.09 1.36 1.58 1.54 1.64 1.45 1.40 1.27 1.58 1.95 2.17 2.23 2.39 2.49 2.44 2.11 1.88 1.80 1.63 1.42 1.57 1.88 2.10 2.17 2.05 2.11 2.11 1.84 1.71 1.66
1.70 1.75 1.72 1.70 1.75 1.75 1.58 1.40 1.22 1.06 0.99 0.93 1.01 1.18 1.63 1.81 1.71 1.76 1.71 1.62 1.39 1.54 1.87 2.23 2.31 2.54 2.51 2.53 2.03 1.78 1.71 1.72 1.51 1.40 1.52 1.88 1.90 1.82 1.83 2.01 2.06 2.00 1.92
2.15 2.21 2.25 2.26 2.12 2.05 1.93 1.61 1.35 1.13 0.97 1.04 1.21 1.39 1.68 1.84 1.93 2.10 1.99 1.68 1.52 1.70 1.89 1.92 2.04 2.50 2.34 2.28 2.09 2.06 2.00 1.80 1.60 1.48 1.44 1.54 1.54 1.67 1.70 1.75 1.94 2.06 2.13
2.60 2.85 2.97 2.87 2.85 2.78 2.41 2.04 1.76 1.55 1.39 1.44 1.49 1.44 1.40 1.57 1.76 1.92 1.66 1.35 1.51 1.78 1.92 1.83 1.84 2.20 2.24 2.23 2.21 2.11 2.00 1.81 1.57 1.49 1.45 1.36 1.33 1.18 1.36 1.57 1.78 1.94 2.17
3.04 3.42 3.69 3.86 3.54 3.16 2.58 2.14 1.77 1.74 1.67 1.59 1.48 1.28 1.13 1.05 1.10 1.22 1.06 1.01 1.23 1.49 1.50 1.33 1.46 1.72 1.81 1.90 1.86 1.65 1.46 1.27 1.14 1.12 1.10 1.04 1.14 1.16 1.21 1.27 1.53 1.71 2.02
3.31 3.69 3.93 4.03 3.57 2.91 2.48 2.26 1.94 1.72 1.58 1.48 1.30 1.06 0.86 0.79 0.76 0.84 0.84 0.80 0.89 0.93 0.96 1.11 1.27 1.41 1.30 1.38 1.31 1.10 1.06 0.92 0.85 0.82 0.71 0.71 0.81 0.82 0.87 1.07 1.30 1.20 1.53
3.75 4.15 4.19 3.85 3.05 2.44 2.02 1.81 1.60 1.40 1.22 1.06 0.93 0.81 0.71 0.70 0.65 0.65 0.61 0.63 0.70 0.69 0.69 0.84 0.96 0.97 0.80 0.96 1.03 0.82 0.67 0.60 0.59 0.58 0.54 0.52 0.54 0.59 0.74 0.95 1.10 1.08 1.05
3.50 3.64 3.48 2.96 2.25 1.76 1.42 1.22 1.02 0.87 0.74 0.66 0.58 0.55 0.54 0.55 0.54 0.54 0.51 0.49 0.49 0.52 0.55 0.60 0.72 0.73 0.64 0.75 0.84 0.77 0.58 0.52 0.46 0.35 0.38 0.39 0.40 0.50 0.57 0.71 0.92 1.13 1.12
3.07 2.69 2.24 1.84 1.42 1.23 1.06 0.87 0.69 0.59 0.48 0.39 0.34 0.34 0.35 0.34 0.33 0.33 0.32 0.32 0.34 0.39 0.42 0.49 0.57 0.60 0.54 0.52 0.63 0.73 0.57 0.44 0.40 0.35 0.34 0.37 0.44 0.49 0.52 0.67 0.79 1.01 1.18
2.31 1.85 1.54 1.35 1.13 0.94 0.83 0.78 0.63 0.50 0.44 0.37 0.31 0.29 0.27 0.24 0.24 0.24 0.22 0.22 0.22 0.25 0.33 0.35 0.45 0.55 0.54 0.44 0.47 0.55 0.55 0.51 0.45 0.40 0.38 0.36 0.41 0.44 0.50 0.57 0.72 0.90 1.03
1.21 1.23 1.23 1.18 1.11 0.96 0.82 0.77 0.67 0.49 0.41 0.36 0.34 0.31 0.29 0.27 0.25 0.24 0.22 0.21 0.21 0.21 0.24 0.29 0.37 0.46 0.53 0.47 0.44 0.50 0.59 0.57 0.49 0.46 0.40 0.40 0.45 0.38 0.46 0.60 0.72 0.81 0.90
0.63 0.74 0.83 0.81 0.88 0.90 0.81 0.72 0.62 0.51 0.41 0.36 0.32 0.28 0.25 0.25 0.26 0.26 0.26 0.27 0.27 0.26 0.26 0.26 0.28 0.34 0.45 0.54 0.53 0.51 0.56 0.56 0.46 0.43 0.36 0.34 0.41 0.40 0.53 0.71 0.77 0.83 0.90